Tracking 30685 objects as of 17-Jun-2025
HD Live streaming from Space Station
objects crossing your sky now

NOAA 16 DEB

Track NOAA 16 DEB now!
10-day predictions


NORAD ID: 41430
Int'l Code: 2000-055LK
Perigee: 722.1 km
Apogee: 774.1 km
Inclination: 99.0 °
Period: 99.6 minutes
Semi major axis: 7119 km
RCS: Unknown
Launch date: September 21, 2000
Source: United States (US)
Launch site: AIR FORCE WESTERN TEST RANGE (AFWTR)

Note: This is SATELLITE DEBRIS
Your satellite tracking list
Your tracking list is empty




NASA's NSSDC Master Catalog

Two Line Element Set (TLE):
1 41430U 00055LK  25167.31291927  .00004607  00000-0  13144-2 0  9999
2 41430  99.0184 356.0379 0036504 151.3890 208.9313 14.45319241489194
Source of the keplerian elements: AFSPC